GW5992 Weather Reports


time (UTC)temp
C
wind
direction
speed
KPH
gust
KPH
rain 1hr
cm
rain 24hr
cm
rain mn
cm
humidity
%
barometer
mb
20260510103605 12 9 9.7 30.6 0.00 0.00 0.00 72 1018.0
20260510102705 12 5 8.0 24.1 0.00 0.00 0.00 73 1018.0
20260510101803 12 5 11.3 22.5 0.00 0.00 0.00 74 1017.9
20260510100904 12 6 8.0 22.5 0.00 0.00 0.00 75 1017.9
20260510100005 11 9 11.3 25.7 0.00 0.00 0.00 75 1018.1
20260510095404 11 9 12.9 27.4 0.00 0.00 0.00 76 1018.2
20260510094503 11 8 9.7 22.5 0.00 0.00 0.00 76 1018.2
20260510093605 11 355 14.5 32.2 0.00 0.00 0.00 75 1018.3
20260510092919 11 359 9.7 25.7 0.00 0.00 0.00 75 1018.2
20260510091804 12 7 8.0 35.4 0.00 0.00 0.00 74 1018.3
20260510090905 12 360 11.3 32.2 0.00 0.00 0.00 74 1018.3
20260510090006 12 15 3.2 19.3 0.00 0.00 0.00 77 1018.3
20260510085403 11 10 4.8 16.1 0.00 0.00 0.00 76 1018.4
20260510084505 11 1 8.0 25.7 0.00 0.00 0.00 76 1018.5
20260510083817 11 7 6.4 25.7 0.00 0.00 0.00 76 1018.5
20260510082706 11 8 8.0 27.4 0.00 0.00 0.00 77 1018.6
20260510081803 11 4 11.3 27.4 0.00 0.00 0.00 77 1018.5
20260510080905 10 13 8.0 27.4 0.00 0.00 0.00 79 1018.6
20260510080005 10 17 4.8 27.4 0.00 0.00 0.00 81 1018.6
20260510075618 10 12 6.4 20.9 0.00 0.00 0.00 81 1018.5
20260510074504 10 4 9.7 27.4 0.00 0.00 0.00 81 1018.6
20260510073603 10 7 9.7 35.4 0.00 0.00 0.00 81 1018.6
20260510072705 10 15 6.4 24.1 0.00 0.00 0.00 82 1018.5
20260510071805 10 4 8.0 27.4 0.00 0.00 0.00 82 1018.7
20260510070904 10 8 6.4 20.9 0.00 0.00 0.00 82 1018.5
20260510070003 10 356 6.4 24.1 0.00 0.00 0.00 83 1018.5
20260510065403 10 360 9.7 24.1 0.00 0.00 0.00 83 1018.5
20260510064505 10 1 9.7 30.6 0.00 0.00 0.00 83 1018.4
20260510063818 10 5 9.7 30.6 0.00 0.00 0.00 83 1018.4
20260510062705 9 10 9.7 30.6 0.00 0.00 0.00 84 1018.2
20260510061806 9 4 11.3 25.7 0.00 0.00 0.00 84 1018.2
20260510061118 9 5 9.7 27.4 0.00 0.00 0.00 84 1018.3
20260510060003 9 9 6.4 20.9 0.00 0.00 0.00 85 1018.1
20260510055403 9 15 6.4 22.5 0.00 0.00 0.00 85 1018.2
20260510054505 9 9 9.7 30.6 0.00 0.00 0.00 85 1018.2
20260510053605 9 7 6.4 17.7 0.00 0.00 0.00 85 1018.2
20260510052703 9 18 6.4 22.5 0.00 0.00 0.00 85 1018.2
20260510051805 9 3 9.7 25.7 0.00 0.00 0.00 85 1018.2
20260510050905 9 9 8.0 27.4 0.00 0.00 0.00 85 1018.4
20260510050003 9 7 9.7 25.7 0.00 0.00 0.00 86 1018.2
20260510045617 9 9 9.7 25.7 0.00 0.00 0.00 86 1018.2
20260510044503 8 17 6.4 22.5 0.00 0.00 0.00 86 1018.2
20260510043605 8 2 8.0 29.0 0.00 0.00 0.00 85 1018.1
20260510042703 9 3 11.3 30.6 0.00 0.00 0.00 85 1018.1
20260510041804 9 1 11.3 29.0 0.00 0.00 0.00 85 1018.1
20260510040904 9 6 9.7 25.7 0.00 0.00 0.00 84 1018.1
20260510040219 9 6 9.7 30.6 0.00 0.00 0.00 85 1018.2
20260510035405 9 11 9.7 27.4 0.00 0.00 0.00 85 1018.2
20260510034505 9 9 8.0 19.3 0.00 0.00 0.00 85 1018.3
20260510033605 9 4 9.7 25.7 0.00 0.00 0.00 85 1018.4
20260510032703 9 2 6.4 27.4 0.00 0.00 0.00 85 1018.4
20260510031805 9 10 9.7 27.4 0.00 0.00 0.00 85 1018.4
20260510031119 9 11 8.0 24.1 0.00 0.00 0.00 85 1018.4
20260510030216 9 7 8.0 24.1 0.00 0.00 0.00 85 1018.3
20260510025618 9 8 8.0 24.1 0.00 0.00 0.00 84 1018.4
20260510024505 9 3 11.3 22.5 0.00 0.00 0.00 84 1018.5
20260510023819 9 3 11.3 25.7 0.00 0.00 0.00 84 1018.6
20260510022705 8 3 8.0 20.9 0.00 0.00 0.00 84 1018.5
20260510021805 9 359 8.0 24.1 0.00 0.00 0.00 83 1018.4
20260510020903 9 8 8.0 24.1 0.00 0.00 0.00 83 1018.6
20260510020003 9 3 8.0 19.3 0.00 0.00 0.00 83 1018.5
20260510015618 9 4 8.0 19.3 0.00 0.00 0.00 83 1018.6
20260510014505 9 3 6.4 19.3 0.00 0.00 0.00 83 1018.6
20260510013605 9 4 8.0 22.5 0.00 0.00 0.00 84 1018.7
20260510012920 9 5 6.4 20.9 0.00 0.00 0.00 84 1018.6
20260510011806 9 5 8.0 20.9 0.00 0.00 0.00 84 1018.6
20260510010903 9 359 6.4 22.5 0.00 0.00 0.00 84 1018.6
20260510010003 10 10 6.4 19.3 0.00 0.00 0.00 84 1018.5
20260510005619 10 7 8.0 24.1 0.00 0.00 0.00 84 1018.5
20260510004505 10 8 6.4 17.7 0.00 0.00 0.00 84 1018.5
20260510003604 10 6 8.0 20.9 0.00 0.00 0.00 83 1018.5
20260510002703 10 5 8.0 20.9 0.00 0.00 0.00 82 1018.5
20260510002019 10 1 8.0 24.1 0.00 0.00 0.00 81 1018.5
20260510000903 10 359 8.0 20.9 0.00 0.00 0.00 78 1018.6
20260510000005 10 2 6.4 19.3 0.00 0.00 0.00 76 1018.5
20260509235404 10 7 8.0 19.3 0.00 0.00 0.00 75 1018.5
20260509234504 11 5 4.8 19.3 0.00 0.00 0.00 72 1018.5
20260509233603 11 5 8.0 24.1 0.00 0.00 0.00 69 1018.5
20260509232917 11 359 9.7 20.9 0.00 0.00 0.00 66 1018.5
20260509232016 11 6 8.0 24.1 0.00 0.00 0.00 62 1018.5
20260509230905 11 1 9.7 22.5 0.00 0.00 0.00 60 1018.3
20260509230006 12 6 6.4 22.5 0.00 0.00 0.00 60 1018.4
20260509225403 12 5 8.0 19.3 0.00 0.00 0.00 60 1018.4
20260509224505 12 8 3.2 16.1 0.00 0.00 0.00 62 1018.3
20260509223604 12 10 1.6 8.0 0.00 0.00 0.00 62 1018.4
20260509222705 12 3 1.6 8.0 0.00 0.00 0.00 61 1018.3
20260509221805 12 9 1.6 8.0 0.00 0.00 0.00 60 1018.4
20260509221119 12 36 0.0 1.6 0.00 0.00 0.00 59 1018.3
20260509220003 13 0 0.0 0.0 0.00 0.00 0.00 57 1018.4
20260509215405 13 0 0.0 0.0 0.00 0.00 0.00 56 1018.3
20260509214503 13 36 0.0 1.6 0.00 0.00 0.00 55 1018.2
20260509213605 13 45 0.0 4.8 0.00 0.00 0.00 54 1018.0
20260509212703 13 35 1.6 6.4 0.00 0.00 0.00 54 1017.9
20260509211805 14 21 0.0 4.8 0.00 0.00 0.00 53 1017.9
20260509210903 14 19 1.6 8.0 0.00 0.00 0.00 52 1017.9
20260509210005 14 49 0.0 6.4 0.00 0.00 0.00 51 1017.8
20260509205620 14 70 0.0 3.2 0.00 0.00 0.00 51 1017.8
20260509204504 14 90 1.6 8.0 0.00 0.00 0.00 51 1017.9
20260509203605 15 82 0.0 3.2 0.00 0.00 0.00 52 1017.7
20260509202703 15 67 0.0 3.2 0.00 0.00 0.00 51 1017.6
20260509201804 15 55 0.0 4.8 0.00 0.00 0.00 51 1017.6
20260509200903 15 94 0.0 4.8 0.00 0.00 0.00 52 1017.4
20260509200005 15 74 0.0 1.6 0.00 0.00 0.00 52 1017.3
20260509195403 15 75 0.0 1.6 0.00 0.00 0.00 52 1017.2
20260509194503 16 322 0.0 6.4 0.00 0.00 0.00 53 1017.2
20260509193818 16 173 0.0 6.4 0.00 0.00 0.00 52 1017.1
20260509192704 16 132 1.6 9.7 0.00 0.00 0.00 51 1017.0
20260509192018 16 125 1.6 9.7 0.00 0.00 0.00 51 1016.9
20260509190905 17 118 0.0 4.8 0.00 0.00 0.00 52 1016.8
20260509190003 17 135 1.6 9.7 0.00 0.00 0.00 51 1016.7
20260509185405 17 137 3.2 8.0 0.00 0.00 0.00 51 1016.7
20260509184503 17 122 3.2 12.9 0.00 0.00 0.00 49 1016.6
20260509183603 18 127 3.2 12.9 0.00 0.00 0.00 49 1016.5
20260509182705 18 128 1.6 14.5 0.00 0.00 0.00 48 1016.5
20260509182018 18 49 1.6 6.4 0.00 0.00 0.00 47 1016.4
20260509180904 18 51 0.0 4.8 0.00 0.00 0.00 47 1016.2
20260509180219 18 89 1.6 11.3 0.00 0.00 0.00 48 1016.2
20260509175404 18 49 1.6 4.8 0.00 0.00 0.00 47 1016.1
20260509174505 18 54 0.0 4.8 0.00 0.00 0.00 46 1016.1
20260509173603 19 11 1.6 9.7 0.00 0.00 0.00 46 1016.0
20260509172703 19 10 3.2 11.3 0.00 0.00 0.00 45 1016.0
20260509171803 20 57 1.6 6.4 0.00 0.00 0.00 45 1016.0
20260509170903 20 74 3.2 14.5 0.00 0.00 0.00 44 1016.1
20260509170219 20 9 6.4 20.9 0.00 0.00 0.00 43 1016.1
20260509165618 20 7 9.7 20.9 0.00 0.00 0.00 41 1016.1
20260509164503 20 4 6.4 19.3 0.00 0.00 0.00 42 1016.2
20260509163603 20 1 8.0 19.3 0.00 0.00 0.00 41 1016.2
20260509162703 20 28 3.2 19.3 0.00 0.00 0.00 43 1016.1
20260509162020 20 25 3.2 12.9 0.00 0.00 0.00 42 1016.2
20260509160903 21 17 3.2 17.7 0.00 0.00 0.00 42 1016.3
20260509160003 21 83 1.6 11.3 0.00 0.00 0.00 43 1016.4
20260509155403 21 43 1.6 16.1 0.00 0.00 0.00 42 1016.4
20260509154719 21 42 3.2 16.1 0.00 0.00 0.00 43 1016.4
20260509153604 20 120 1.6 6.4 0.00 0.00 0.00 41 1016.6
20260509152918 20 69 0.0 4.8 0.00 0.00 0.00 41 1016.6
20260509151803 20 12 3.2 9.7 0.00 0.00 0.00 42 1016.7
20260509150904 20 93 1.6 6.4 0.00 0.00 0.00 43 1016.6
20260509150003 20 113 1.6 12.9 0.00 0.00 0.00 43 1016.5
20260509145403 20 128 3.2 11.3 0.00 0.00 0.00 43 1016.5
20260509144506 21 15 3.2 14.5 0.00 0.00 0.00 42 1016.5
20260509143603 21 17 3.2 12.9 0.00 0.00 0.00 42 1016.4
20260509142704 21 13 1.6 8.0 0.00 0.00 0.00 42 1016.4
20260509141805 21 76 3.2 12.9 0.00 0.00 0.00 43 1016.4
20260509141118 21 357 3.2 9.7 0.00 0.00 0.00 42 1016.5
20260509140006 22 1 4.8 16.1 0.00 0.00 0.00 40 1016.4
20260509135404 21 13 1.6 14.5 0.00 0.00 0.00 41 1016.4
20260509134505 21 16 6.4 27.4 0.00 0.00 0.00 42 1016.6
20260509133603 21 77 3.2 12.9 0.00 0.00 0.00 42 1016.6
20260509132705 21 124 3.2 19.3 0.00 0.00 0.00 41 1016.7
20260509131805 21 9 3.2 16.1 0.00 0.00 0.00 42 1016.8
20260509130904 21 23 3.2 16.1 0.00 0.00 0.00 42 1016.8
20260509130005 21 18 6.4 19.3 0.00 0.00 0.00 44 1016.9
20260509125404 20 49 4.8 16.1 0.00 0.00 0.00 44 1016.9
20260509124504 20 135 4.8 16.1 0.00 0.00 0.00 43 1016.9
20260509123603 20 131 4.8 16.1 0.00 0.00 0.00 47 1017.1
20260509122703 20 129 4.8 17.7 0.00 0.00 0.00 46 1017.3
20260509121803 20 108 4.8 17.7 0.00 0.00 0.00 44 1017.3
20260509120905 21 19 3.2 19.3 0.00 0.00 0.00 46 1017.4
20260509120005 20 44 3.2 16.1 0.00 0.00 0.00 47 1017.4
20260509115403 20 66 3.2 12.9 0.00 0.00 0.00 48 1017.5
20260509114505 20 118 4.8 17.7 0.00 0.00 0.00 47 1017.5
20260509113603 20 35 3.2 16.1 0.00 0.00 0.00 48 1017.7
20260509112703 19 84 3.2 12.9 0.00 0.00 0.00 50 1017.8
20260509111805 18 140 6.4 16.1 0.00 0.00 0.00 51 1017.9
20260509111117 18 136 6.4 16.1 0.00 0.00 0.00 51 1018.0
20260509110004 18 131 4.8 12.9 0.00 0.00 0.00 53 1018.0
20260509105618 18 128 4.8 12.9 0.00 0.00 0.00 52 1018.0
20260509104720 18 123 3.2 14.5 0.00 0.00 0.00 54 1018.0